Regional Weather Roundup
Issued by NWS

Home | Current Version | Previous Version | Text Only | Print | Product List | Glossary On
Versions: 1 2 3 4 5 6 7 8 9 10 11 12 13 14 15 16 17 18 19 20 21 22 23 24 25 26 27 28 29 30 31 32 33 34 35 36 37 38 39 40 41 42 43 44 45 46 47 48 49 50
000
ASUS43 KFSD 201702
RWRSD

WEATHER ROUNDUP FOR SOUTH DAKOTA
NATIONAL WEATHER SERVICE SIOUX FALLS SD
1200 PM CDT THU JUL 20 2017

NOTE: "FAIR" INDICATES FEW OR NO CLOUDS BELOW 12,000 FEET WITH NO
SIGNIFICANT WEATHER AND/OR OBSTRUCTIONS TO VISIBILITY.


SDZ001>005-009-010-012>017-201800-
NORTHWEST AND NORTH CENTRAL SOUTH DAKOTA

CITY           SKY/WX    TMP DP  RH WIND       PRES   REMARKS
BUFFALO          N/A     84  66  54 SE20      29.94F
FAITH            N/A     83  68  60 S21       30.03F
MOBRIDGE       SUNNY     84  65  52 SE13      30.00F
$$

SDZ012>016-024>037-041>051-057-063-072>074-201800-
SOUTHWEST AND SOUTH CENTRAL SOUTH DAKOTA

CITY           SKY/WX    TMP DP  RH WIND       PRES   REMARKS
RAPID CTY ARPT SUNNY     89  62  40 S13G21    30.06F
PIERRE         MOSUNNY   85  63  47 E9        30.02F
CUSTER         SUNNY     82  51  34 SW8       30.22F
PINE RIDGE     MOSUNNY   84  63  49 SE3       30.10S
SPEARFISH      LGT RAIN  91  55  29 VRB6G13   30.07S
WINNER         FAIR      91  68  46 SE7       30.03S HX  95
$$

SDZ004>011-016>023-039-040-201800-
NORTHEAST SOUTH DAKOTA

CITY           SKY/WX    TMP DP  RH WIND       PRES   REMARKS
ABERDEEN       SUNNY     83  67  58 SE7       30.03S
WATERTOWN      PTSUNNY   81  64  56 E9        30.06R
BROOKINGS      CLOUDY    80  66  62 E10       30.07R
SISSETON         N/A     84  68  58 VRB3      30.02S
$$

SDZ017-020-022-023-036>040-048>070-201800-
SOUTHEAST SOUTH DAKOTA

CITY           SKY/WX    TMP DP  RH WIND       PRES   REMARKS
SIOUX FALLS    CLOUDY    81  70  69 SE9       30.05R
HURON          MOSUNNY   82  68  62 SE10      30.04S
CHAMBERLAIN    SUNNY     89  73  58 E10       30.01F HX  96
MITCHELL       PTSUNNY   84  69  60 E12       30.03F
YANKTON        PTSUNNY   82  70  66 NE9       30.01F
$$

ABBREVIATIONS USED IN REMARKS
   TC - TEMPERATURE IN CELSIUS
  WCI - WIND CHILL INDEX
   HX - HEAT INDEX
  VSB - VISIBILITY





USA.gov is the U.S. government's official web portal to all federal, state and local government web resources and services.